sat.trackr.live / text

‹ back to catalog

ONEWEB-0285

NORAD 49075 · 2021-075A

PAYLOAD ACTIVE UNKNOWN

§ Identity

Operator
Country
UK
Launch date
2021-08-21
Launch site
TYMSC
Launch vehicle
Mass (kg)
RCS (m²)

Purposes: comms

External: N2YO · Heavens-Above · Gunter

§ Orbital elements

Epoch: 2026-09-14T15:20:04.076448Z

Period
109.72 min
Inclination
87.8988°
Eccentricity
0.0001939
Mean motion
13.12445312 rev/d
Perigee alt
1,212.2 km
Apogee alt
1,215.2 km
Semi-major
7,591.9 km
B*
-3.8085e-4
RAAN
332.9052°
Arg perigee
106.3501°
Mean anomaly
253.7841°
Rev number
24,694

§ Raw data

ONEWEB-02851 49075U 21075A   26257.63893607 -.00000124  00000+0 -38085-3 0  99992 49075  87.8988 332.9052 0001939 106.3501 253.7841 13.12445312246948

JSON: /api/v1/satellites/49075 · /tle

For live sub-satellite position, see the globe view (requires WebGL).

§ Visibility from observer

Set your observer location to see the next 7 days of passes ≥ 10°. The values pass through the URL so the page stays shareable.

No JS? Fill the form by hand. The geolocation button needs JavaScript.